Location: Ku?niki
(51.4449°N, 17.8974°E)
Time: 03:26:37
(UTC+00:00)

CUBEBUG 2 - Visible Passes

Search period start: 29 June 2022 00:00
Search period end: 09 July 2022 00:00
Orbit: 582 x 695 km, 97.7° (Epoch: 28 June)

Date Brightness Start Highest point End Pass type
(mag) Time Alt. Az. Time Alt. Az. Time Alt. Az.
29 Jun ? 01:28:22 10° NNE 01:32:19 41° E 01:36:19 10° S visible
01 Jul ? 00:39:05 10° NE 00:41:27 15° E 00:43:49 10° ESE visible
02 Jul ? 01:01:19 10° NE 01:04:42 23° E 01:08:08 10° SSE visible
03 Jul ? 01:23:57 10° NNE 01:27:52 38° E 01:31:52 10° SSE visible
04 Jul ? 01:46:48 10° NNE 01:50:58 64° E 01:55:14 10° S visible
05 Jul ? 00:34:48 10° ENE 00:36:59 14° E 00:39:09 10° ESE visible
06 Jul ? 00:56:54 10° NE 01:00:14 22° E 01:03:36 10° SE visible
07 Jul ? 01:19:29 10° NNE 01:23:25 35° E 01:27:24 10° SSE visible
08 Jul ? 01:42:18 10° NNE 01:46:31 59° E 01:50:49 10° S visible
